Location: Boullarre
(49.1305°N, 3.0047°E)
Time: 19:07:52
(UTC+00:00)

CZ-4B DEB - Pass Details

Date: 11 October 2023
Orbit: 838 x 858 km, 99.0° (Epoch: 01 December)

Event Time Altitude Azimuth Distance (km) Brightness Sun altitude
Rises 20:13:04 0° 217° (SW) 3,381 7.4 -30.5°
Reaches altitude 10° 20:16:37 10° 241° (WSW) 2,453 6.9 -31.0°
Maximum altitude 20:19:28 14° 273° (W) 2,162 7.0 -31.5°
Drops below altitude 10° 20:22:21 10° 305° (NW) 2,464 7.5 -31.9°
Sets 20:25:57 0° 330° (NNW) 3,408 8.2 -32.4°
